Home   Weather   Merzig   Past weeks

Flag for Germany Past Weather in Merzig, Saarland, Germany — Yesterday and Last 2 Weeks

Now
70 °F

Overcast.


Feels Like: 76 °F
Forecast: 63 / 78 °F
Wind: 2 mph from Southwest

Location: Luxembourg / Luxembourg

Current Time: Jul 22, 2017 at 12:34:58 am

Latest Report: Jul 22, 2017 at 12:00 am


Visibility: 19 mi

Pressure: 29.84 "Hg

Humidity: 60%

Dew Point: 56 °F

Location of MerzigLocation

Past Weather in Merzig — Graph

°F

Merzig Temperature Yesterday

Maximum temperature yesterday: 77 °F (at 5:00 pm)
Minimum temperature yesterday: 56 °F (at 6:00 am)
Average temperature yesterday: 66 °F

High & Low Weather Summary for the Past Weeks

 TemperatureHumidityPressure
High85 °F (Jul 7, 4:00 pm)99% (Jul 10, 7:00 am)30.26 "Hg (Jul 10, 7:00 am)
Low50 °F (Jul 13, 6:00 am)33% (Jul 14, 2:00 pm)29.78 "Hg (Jul 10, 7:00 am)
Average66 °F73%30.01 "Hg
* Reported Jul 6 11:00 pm — Jul 21 11:00 pm, Merzig. Weather by CustomWeather, © 2017

Note: Actual official high and low records may vary slightly from our data, if they occured in-between our weather recording intervals... More about our weather records

Advertising

Merzig Weather History for the Previous 24 Hours

Scroll right to see more
 ConditionsComfort  
Time TempWeatherWind HumidityBarometerVisibility
11:00 pm
Fri, Jul 21
69 °FOvercast.2 mph63%29.84 "Hg22 mi
10:00 pm70 °FOvercast.N/A61%29.83 "Hg19 mi
9:00 pm74 °FPartly sunny.1 mph49%29.82 "Hg22 mi
7:00 pm76 °FPassing clouds.2 mph43%29.82 "Hg22 mi
6:00 pm76 °FScattered clouds.2 mph44%29.83 "Hg22 mi
5:00 pm77 °FPartly sunny.N/A43%29.85 "Hg22 mi
4:00 pm76 °FPartly sunny.5 mph45%29.86 "Hg22 mi
3:00 pm74 °FOvercast.3 mph50%29.89 "Hg19 mi
2:00 pm72 °FPartly sunny.N/A51%29.90 "Hg22 mi
1:00 pm70 °FPartly sunny.3 mph56%29.92 "Hg22 mi
12:00 pm70 °FScattered clouds.N/A58%29.94 "Hg22 mi
11:00 am67 °FPassing clouds.2 mph64%29.95 "Hg19 mi
10:00 am66 °FScattered clouds.2 mph71%29.96 "Hg19 mi
9:00 am64 °FPassing clouds.N/A73%29.96 "Hg17 mi
8:00 am61 °FScattered clouds.3 mph76%29.96 "Hg17 mi
7:00 am58 °FPassing clouds.3 mph85%29.98 "Hg25 mi
6:00 am56 °FScattered clouds.3 mph91%29.98 "Hg22 mi
5:00 am56 °FPassing clouds.3 mph89%29.98 "Hg22 mi
4:00 am57 °FPassing clouds.2 mph89%29.99 "Hg19 mi
3:00 am58 °FPassing clouds.3 mph88%29.99 "Hg31 mi
2:00 am59 °FPassing clouds.2 mph88%29.98 "Hg25 mi
1:00 am60 °FPassing clouds.3 mph85%29.98 "Hg25 mi
12:00 am62 °FPassing clouds.3 mph80%29.96 "Hg22 mi
Weather by CustomWeather, © 2017

See weather overviewHow to use our weather pages